Location: Anderson (historical)
(34.9820°N, 88.5439°W)
Time: 00:48:54
(UTC+00:00)

Daily predictions for brighter satellites

Satellite Brightness Start Highest point End
(mag) Time Altitude Azimuth Time Altitude Azimuth Time Altitude Azimuth
ARGOS 3.5 01:03:10 10° S 01:08:29 71° WSW 01:13:51 10° NNW
ASTRO E2 3.2 01:05:48 10° WSW 01:09:36 44° S 01:13:24 10° E
SAR-Lupe-1 4.0 01:06:04 10° NNE 01:09:40 79° ESE 01:13:13 10° S
SL-16 R/B 2.8 01:05:49 10° NNW 01:11:24 62° WSW 01:16:58 10° S
Cosmos 1689 Rocket 2.6 01:08:49 10° N 01:11:34 60° WNW 01:14:18 10° SSW
Cosmos 2266 Rocket 4.0 01:05:38 10° N 01:11:50 68° E 01:17:53 10° SSE
Aureole 2 Rocket 4.0 01:10:36 10° SW 01:12:42 27° WNW 01:14:51 10° N
Okean 3 Rocket 3.9 01:10:18 10° N 01:14:36 47° E 01:18:50 10° SSE
Cosmos 540 Rocket 4.2 01:10:50 10° N 01:15:30 35° ENE 01:20:09 10° SE
Okean-O 3.4 01:12:39 10° S 01:16:58 55° W 01:21:21 10° NNW
Meteor 2-3 Rocket 3.9 01:15:05 10° NNW 01:20:44 78° W 01:26:18 10° S
Cosmos 1655 Rocket 4.1 01:15:12 10° N 01:21:26 84° W 01:27:38 10° S
Cosmos 2263 Rocket 2.5 01:17:05 10° SSW 01:22:36 71° WNW 01:28:11 10° NNE
Cosmos 921 Rocket 4.3 01:19:24 10° NNE 01:22:48 23° ENE 01:25:50 11° ESE
H-2A R/B 4.0 01:19:37 10° SSW 01:23:50 29° W 01:28:03 10° NW
DELTA 2 R/B (1) 4.0 01:18:34 10° W 01:24:06 63° NNW 01:29:37 10° ENE
Meteor 2-16 Rocket 4.4 01:18:08 10° N 01:24:19 78° E 01:30:26 10° S
Cosmos 1943 3.9 01:19:25 10° N 01:24:37 36° ENE 01:29:31 11° SE
CSL-04 Debris 4.4 01:22:32 10° S 01:27:57 73° WSW 01:33:24 10° NNW
CZ-2C R/B 4.2 01:23:28 10° N 01:28:26 40° WNW 01:33:30 10° SW
Cosmos 1844 Rocket 3.7 01:24:54 10° SSE 01:29:06 22° E 01:33:19 10° NE
FALCON 9 R/B 4.4 01:23:51 10° W 01:30:16 46° SSW 01:50:12 12° SE
USA 229 DEB 4.1 01:23:19 10° NNW 01:30:44 66° ENE 01:38:10 11° SE
USA 229 4.1 01:23:24 10° NNW 01:30:49 65° ENE 01:38:14 11° SE
Cosmos 1869 4.3 01:30:28 10° SSW 01:34:15 48° W 01:38:01 10° N
X-37B 2.9 01:31:36 10° WNW 01:34:18 25° NNW 01:37:01 10° NE
Cosmos 1437 Rocket 4.1 01:41:38 17° ESE 01:42:37 19° E 01:45:24 10° NE
Meteor 2-15 4.4 01:38:51 10° S 01:44:53 81° E 01:50:57 10° N
OBJECT-B 0.7 01:42:33 13° SSE 01:45:23 69° ENE 01:48:36 10° N
ERS-2 3.6 01:43:00 10° N 01:46:25 40° WNW 01:49:49 10° SW
Cosmos 1763 Rocket 4.1 01:41:33 10° NNW 01:46:30 56° WSW 01:51:29 10° S
CSL-04 Rocket 4.5 01:42:49 10° S 01:47:55 50° W 01:53:05 10° NNW
Helios 1A Rocket 3.7 01:43:57 10° S 01:47:57 52° W 01:52:01 10° NNW
NOSS 3-1 (A) 4.2 01:41:20 10° NNW 01:49:18 80° ENE 01:57:05 15° SE
FALCON 9 DEB 3.9 01:46:19 10° NNW 01:49:33 39° NE 01:51:17 22° E
Cosmos 1500 Rocket 4.5 01:46:16 10° NNE 01:50:07 29° ENE 01:52:01 21° ESE
Cosmos 841 Rocket 3.4 01:46:14 10° NNW 01:51:24 70° ENE 01:55:30 16° SSE
Resurs 01 Rocket 2.9 01:49:50 19° ESE 01:51:42 25° ENE 01:55:18 10° NNE
Cosmos 482 Debris 2.7 01:50:35 10° NW 01:52:35 48° NE 01:52:42 47° ENE
Lacrosse 5 rocket 1.7 01:49:30 10° NW 01:53:49 70° SW 01:56:57 19° SSE
SJ-6B 2.8 01:53:10 12° S 01:56:41 82° WSW 02:00:35 10° NNW
Cosmos 2221 2.5 01:53:05 10° S 01:57:21 81° W 02:01:41 10° N
Cosmos 1766 Rocket 4.5 01:54:16 10° NNW 01:58:30 49° W 02:02:44 10° SSW
MOS 1 4.3 01:56:51 15° SSE 02:01:35 70° ENE 02:07:13 10° N
Nadezhda 2 Rocket 4.4 02:00:55 10° N 02:07:03 76° E 02:12:15 15° SSE
Cosmos 1174 3.2 02:03:45 10° NNW 02:07:21 82° ENE 02:08:21 41° SE
CZ-2C R/B 4.4 02:04:15 10° NE 02:08:16 32° E 02:09:09 30° ESE
BREEZE-M R/B 3.1 02:05:42 10° WSW 02:08:44 44° NW 02:11:05 10° NE
Cosmos 1244 Rocket 4.4 02:03:34 10° N 02:09:52 74° E 02:14:48 17° SSE
Cosmos 1553 Rocket 3.9 02:04:20 10° S 02:10:21 69° E 02:16:29 10° NNE
IGS 5A 4.3 02:10:14 29° E 02:11:09 33° ENE 02:14:52 10° N
Cosmos 1570 Rocket 3.9 02:07:22 10° NNW 02:12:37 77° ENE 02:15:36 26° SSE
Ariane Rocket 3.0 02:14:50 20° S 02:18:26 84° WSW 02:23:31 10° NNW
USA 186 4.3 02:18:36 10° SW 02:20:22 15° W 02:22:04 10° WNW
Cosmos 1417 Rocket 4.4 02:17:41 10° S 02:23:53 76° E 02:30:05 10° N
SPOT 3 Rocket 3.7 02:23:44 35° SE 02:25:39 55° ENE 02:30:41 10° N
SL-4 R/B 4.2 02:22:21 10° NNW 02:25:47 21° NNE 02:27:52 16° ENE
Sich 1 4.0 02:23:15 10° NNE 02:26:56 30° ENE 02:26:56 30° ENE
Cosmos 1603 4.1 02:22:18 10° NNW 02:27:51 58° WSW 02:31:30 21° S
Cosmos 1814 Rocket 4.2 02:28:16 10° NNW 02:33:27 68° WSW 02:36:00 30° S
BREEZE-M DEB (TANK) 2.2 02:34:58 10° NW 02:37:09 71° N 02:37:09 71° N
Cosmos 1606 3.6 02:35:31 18° SSW 02:37:59 47° W 02:41:38 10° N
Cosmos 1242 Rocket 4.1 02:39:46 24° NE 02:39:46 24° NE 02:41:30 10° NNE
ARIANE 5 R/B 3.9 02:41:35 26° ENE 02:41:35 26° ENE 02:44:44 10° NNE
SPOT 5 4.4 02:44:05 22° ENE 02:44:05 22° ENE 02:47:44 10° NNE
Cosmos 1151 Rocket 4.2 02:49:30 29° NE 02:49:30 29° NE 02:52:08 10° NNE
ASTRO E2 3.6 02:45:57 10° W 02:48:46 37° SW 02:48:46 37° SW
Cosmos 1486 Rocket 4.3 02:45:05 10° SSW 02:50:21 68° WNW 02:55:41 10° NNE
Cosmos 1933 3.3 02:51:00 73° NE 02:51:00 73° NE 02:54:43 10° N
OAO 1 4.4 02:45:15 10° W 02:50:44 90° N 02:52:15 50° E
Cosmos 2278 Rocket 4.4 02:56:43 11° ENE 02:56:43 11° ENE 02:57:02 10° ENE
Cosmos 968 Rocket 4.5 02:50:32 10° SW 02:55:35 47° WNW 03:00:38 10° N
Cosmos 1805 Rocket 3.5 02:57:05 10° N 03:01:25 75° W 03:01:28 75° WSW
Terra 3.4 03:07:15 22° NE 03:07:15 22° NE 03:10:00 10° NNE
DELTA 2 R/B (1) 4.1 03:05:33 10° WNW 03:11:00 55° N 03:12:29 42° NE
X-37B 3.6 03:10:00 10° NW 03:11:42 14° N 03:12:05 13° N
Cosmos 1633 Rocket 4.2 03:07:46 10° N 03:10:36 34° NNE 03:10:36 34° NNE
Cosmos 1844 Rocket 3.9 03:07:26 10° SW 03:12:39 41° WNW 03:17:54 10° N
Meteor 1-26 Rocket 4.1 03:14:35 69° S 03:15:20 89° E 03:21:01 10° N
CARTOSAT-1 4.4 03:22:52 45° N 03:22:52 45° N 03:25:55 10° N
Cosmos 1745 Rocket 4.4 03:17:12 10° NNW 03:23:13 56° W 03:25:05 41° SW
Cosmos 1782 4.3 03:25:54 33° N 03:25:54 33° N 03:28:13 10° N
Cosmos 1709 Rocket 3.7 03:20:26 10° N 03:26:35 86° E 03:26:53 81° SSE
Spot 2 Rocket 3.5 03:27:03 75° NNW 03:27:03 75° NNW 03:31:42 10° NNW
Resurs 01 Rocket 3.4 03:27:23 24° WSW 03:28:03 25° W 03:31:43 10° NW
Cosmos 2315 Rocket 4.0 03:27:22 59° SSW 03:28:38 79° W 03:35:02 10° N
NOSS 3-3 (A) 3.7 03:33:32 84° N 03:33:32 84° N 03:39:36 10° NNE
NOSS 3-3 (C) 3.7 03:33:43 82° N 03:33:43 82° N 03:39:42 10° NNE
ATLAS 5 CENTAUR R/B 2.9 03:42:16 10° NNW 03:47:40 52° NE 03:47:40 52° NE
ERS-1 Rocket 3.7 03:51:22 51° NNW 03:51:22 51° NNW 03:55:08 10° NNW
Cosmos 1833 Rocket 4.1 03:45:50 10° N 03:49:40 27° NE 03:49:40 27° NE
SJ 16-02 4.0 04:00:56 12° NNE 04:00:56 12° NNE 04:01:22 10° NNE
Milstar 3 4.0 03:46:21 10° WSW 03:55:37 43° SSW 03:55:37 43° SSW
CZ-4C R/B 3.9 03:51:51 10° NNW 03:58:43 37° NE 03:59:55 36° ENE
SL-4 R/B 4.2 04:01:14 10° NW 04:03:25 28° NW 04:03:25 28° NW
COSMOS 2406 4.4 04:01:33 10° N 04:05:23 34° NNE 04:05:23 34° NNE
Cosmos 2082 Rocket 4.0 04:13:24 10° N 04:16:34 22° NE 04:16:34 22° NE
Cosmos 2278 Rocket 3.4 04:38:30 38° NNW 04:38:30 38° NNW 04:42:21 10° N
Terra 4.1 04:46:08 20° NW 04:46:08 20° NW 04:47:56 10° NW
Cosmos 1943 Rocket 4.3 05:13:54 19° NE 05:13:54 19° NE 05:15:28 10° NNE
NOSS 3-4 (A) 4.4 05:14:06 10° NNW 05:20:00 56° NNE 05:20:00 56° NNE
NOSS 3-4 (C) 4.4 05:14:13 10° NNW 05:20:08 56° NNE 05:20:08 56° NNE
USA 215 4.1 05:32:05 45° NNE 05:32:05 45° NNE 05:37:45 10° NNW
ATLAS 2AS CENTAUR R/B 3.6 05:28:00 10° NNW 05:33:58 42° NNE 05:33:58 42° NNE
CZ-4C R/B 3.9 05:40:05 10° NW 05:45:05 40° WNW 05:45:05 40° WNW
Cosmos 2082 Rocket 4.4 05:56:53 10° NW 05:58:25 18° NW 05:58:25 18° NW
USA 281 4.2 06:29:36 38° ENE 06:29:40 38° ENE 06:35:38 10° N
Cosmos 2369 Rocket 3.8 06:36:27 31° N 06:36:27 31° N 06:39:23 10° NNE
Resurs 1-4 Rocket 4.2 06:33:54 10° NE 06:35:59 20° ENE 06:35:59 20° ENE
Cosmos 1943 Rocket 4.3 06:55:23 19° NW 06:55:23 19° NW 06:58:10 10° N
SL-16 R/B 3.0 07:21:24 54° ENE 07:21:24 54° ENE 07:27:29 10° N
ATLAS CENTAUR R/B 4.3 07:27:08 13° NNE 07:27:08 13° NNE 07:27:33 10° NNE
CZ-2D R/B 2.9 07:39:40 10° N 07:43:39 48° N 07:43:39 48° N
Cosmos 1727 Rocket 4.0 07:53:25 74° NNW 07:53:25 74° NNW 07:59:16 10° N
Cosmos 1975 Rocket 4.3 08:04:58 39° ENE 08:04:58 39° ENE 08:08:21 10° NNE
Meteor 2-10 4.3 08:06:29 10° N 08:11:00 62° NNW 08:11:00 62° NNW
Meteor 1-21 4.3 08:12:54 68° NW 08:12:54 68° NW 08:18:21 10° N
CBERS-1 4.2 08:08:23 10° NNE 08:13:25 62° E 08:13:25 62° E
USA 281 4.3 08:16:27 27° WNW 08:16:27 27° WNW 08:20:00 10° NW
IDEFIX/ARIANE 42P 3.2 08:10:44 10° NNE 08:15:48 48° E 08:16:33 44° SE
Resurs 1-4 Rocket 3.3 08:13:26 10° N 08:17:04 30° NW 08:17:04 30° NW
BREEZE-M DEB (TANK) 3.9 08:19:31 30° E 08:19:31 30° E 08:20:55 10° ENE
ADEOS II 2.1 08:15:01 10° N 08:19:54 70° NW 08:19:54 70° NW
Lacrosse 5 2.0 08:21:53 68° NNW 08:21:53 68° NNW 08:26:36 10° NE
Cosmos 1726 4.3 08:21:01 10° NNW 08:22:17 20° NNW 08:22:17 20° NNW
Cosmos 1656 3.8 08:25:06 57° SE 08:25:44 61° ESE 08:31:08 10° NNE
Meteor 1-28 Rocket 4.4 08:27:15 39° NNE 08:27:15 39° NNE 08:29:50 10° N
ARGOS Delta rocket 4.4 08:22:31 10° N 08:25:57 44° NNW 08:25:57 44° NNW
Cosmos 1626 3.8 08:31:49 28° E 08:32:04 28° E 08:35:16 10° NNE
IRS-1C 4.3 08:37:01 10° NNE 08:42:20 68° ESE 08:44:01 43° SSE
Cosmos 44 Rocket 3.3 08:37:58 10° NNW 08:43:11 88° WSW 08:45:30 33° SSE
CZ-4B R/B 3.8 08:40:51 10° NNE 08:45:45 61° ESE 08:47:26 39° SSE
IRS-1D 3.8 08:40:45 10° N 08:45:53 50° WNW 08:46:17 49° W
Cosmos 1953 2.8 08:43:05 10° N 08:47:01 58° E 08:47:43 49° SE
Cosmos 1697 Rocket 3.4 08:47:24 29° SSE 08:49:56 48° ESE 08:55:18 10° NNE
Cosmos 1932 4.4 08:50:26 47° SW 08:52:25 79° WNW 08:58:49 10° NNE
GP-B 3.2 08:48:21 10° N 08:52:47 73° E 08:53:59 47° SSE
MSX 3.8 08:48:23 10° NNE 08:54:11 81° ESE 08:56:45 35° S
Cosmos 2016 Rocket 3.9 08:48:34 10° N 08:54:52 86° W 08:58:43 25° S
CZ-2C R/B 1.6 08:57:58 42° E 08:57:58 42° E 09:00:17 10° E
Gblst 52 Del rocket 4.0 08:51:23 10° NW 08:57:15 70° SW 09:02:42 10° SE
Cosmos 1459 Rocket 4.1 08:51:13 10° NNW 08:57:18 53° W 08:58:58 42° SW
Cosmos 1980 Rocket 3.9 08:54:19 10° SSE 08:59:00 28° ESE 09:03:44 10° NE
Cosmos 1025 Rocket 2.9 08:58:52 64° SSW 08:59:30 85° W 09:03:51 10° N
CZ-2C R/B 4.1 08:56:04 10° NE 09:00:35 31° E 09:05:08 10° SSE
COSMOS 2455 3.3 08:56:41 10° NNW 09:02:38 61° ENE 09:08:33 10° SE
Cosmos 2173 Rocket 4.3 08:57:34 10° NNW 09:03:23 46° W 09:04:56 38° SW
Spot 1 4.1 09:03:17 54° SSW 09:04:00 63° W 09:08:36 10° NNW
Lacrosse 4 Rocket 3.2 09:01:58 17° SSE 09:04:28 29° ESE 09:08:19 10° NE
SL-16 R/B 4.0 09:06:29 19° WNW 09:06:29 19° WNW 09:09:46 10° NW
Cosmos 371 Rocket 3.4 09:04:42 49° WSW 09:05:37 58° WNW 09:10:27 10° N
OAO 3 Rocket 3.1 09:04:20 44° W 09:05:52 82° S 09:10:48 10° ESE
Cosmos 1544 Rocket 3.7 09:01:39 10° N 09:06:01 73° E 09:08:51 22° SSE
Cosmos 332 Rocket 3.8 09:05:28 40° SSW 09:07:13 85° ESE 09:12:08 10° NNE
CZ-4C R/B 3.7 09:08:32 50° WSW 09:08:48 51° W 09:13:03 10° NNW
Cosmos 2227 Rocket 3.2 09:03:59 10° N 09:09:26 48° ENE 09:14:51 10° SE
Cosmos 1802 Rocket 4.1 09:05:08 10° NNW 09:11:03 51° W 09:13:39 31° SSW
Cosmos 2297 Rocket 2.5 09:07:58 10° NNW 09:13:38 70° ENE 09:19:15 10° SSE
Cosmos 1674 3.7 09:15:50 30° WNW 09:15:50 30° WNW 09:18:53 10° NNW
Cosmos 1455 Rocket 3.3 09:13:05 10° NNW 09:17:13 45° W 09:17:47 42° WSW
Cosmos 1536 Rocket 3.5 09:15:05 29° S 09:17:15 82° E 09:21:39 10° N
CZ-2D R/B 3.5 09:13:31 10° NNE 09:17:54 87° ESE 09:20:09 29° S
BREEZE-M R/B 4.5 09:13:28 10° WNW 09:18:57 68° SW 09:31:23 10° SE
BREEZE-M DEB (TANK) 2.6 09:19:16 52° SW 09:19:26 52° SW 09:25:18 10° SE
USA 129 3.1 09:21:31 37° ESE 09:21:56 42° ENE 09:24:14 10° N
IRS-P3 4.4 09:17:27 10° N 09:22:35 49° WNW 09:24:50 30° SW
CZ-2C R/B 3.8 09:19:17 10° NNE 09:23:07 45° E 09:26:34 12° S
USA 276 3.7 09:23:04 23° NW 09:23:36 25° NNW 09:26:17 10° NNE
Milstar 3 3.9 09:23:10 22° SSW 09:23:39 22° SSW 09:29:42 10° SSE
Cosmos 2123 Rocket 4.5 09:21:53 29° WSW 09:24:13 40° WNW 09:29:59 10° N
Cosmos 1315 Rocket 4.1 09:24:31 10° NW 09:27:09 24° WNW 09:27:09 24° WNW
Tianhe-1 3.1 09:26:05 13° NW 09:28:17 25° N 09:30:57 10° ENE
ARIANE 5 R/B 2.7 09:23:25 10° N 09:28:27 54° WNW 09:31:04 27° SW
USA 234 3.6 09:25:21 10° NE 09:31:49 60° SE 09:36:59 17° SSW
ADEOS Rocket 3.9 09:29:58 20° SSW 09:34:08 38° W 09:41:03 10° NNW
Cosmos 1300 3.5 09:30:48 10° N 09:34:31 53° E 09:38:14 10° SSE
Cosmos 1908 4.0 09:36:47 10° NNW 09:40:14 31° W 09:41:13 27° WSW
Cosmos 1140 Rocket 4.4 09:37:39 10° N 09:42:45 52° ENE 09:47:49 10° SSE
SL-14 R/B 3.6 09:41:41 26° SW 09:43:24 44° W 09:47:08 10° N
Cosmos 2219 3.1 09:39:24 10° NNW 09:45:05 72° WSW 09:50:47 10° SSE
FENGYUN 3A 4.2 09:43:05 10° NNE 09:48:23 58° E 09:53:40 10° S
Cosmos 2228 4.3 09:46:16 10° N 09:50:19 43° E 09:54:23 10° SSE
IDEFIX/ARIANE 42P 4.2 09:51:26 10° NNW 09:54:58 19° WNW 09:57:23 14° W
Cosmos 614 Rocket 4.2 09:54:13 10° NNW 09:59:01 44° WSW 10:03:51 10° S
Cosmos 1624 Rocket 4.1 09:54:37 13° SSW 09:59:21 63° WNW 10:04:39 10° N
SL-08 R/B 3.9 09:56:39 10° SSW 10:00:59 34° W 10:05:17 10° NNW
Cosmos 405 4.0 09:58:21 10° N 10:01:47 49° E 10:05:10 10° SSE
Lacrosse 5 4.1 10:02:34 10° WNW 10:05:19 14° NNW 10:08:03 10° N
TSX-5 3.6 10:02:14 10° NNW 10:05:45 75° WSW 10:10:04 10° SSE
Cosmos 1626 4.1 10:06:21 12° W 10:07:18 13° WNW 10:09:07 10° NW
Cosmos 407 Rocket 3.5 10:02:32 10° NNW 10:07:53 77° WSW 10:13:13 10° S
Cosmos 1346 Rocket 4.1 10:05:27 10° SSE 10:09:08 42° E 10:12:50 10° NNE
Timation 2 Rocket 4.2 10:08:45 10° NW 10:14:20 43° WSW 10:19:59 10° S
SL-24 R/B 3.7 10:11:03 10° SSE 10:14:41 89° ENE 10:18:25 10° N
Cosmos 1452 Rocket 4.2 10:12:23 10° S 10:17:31 58° ESE 10:22:42 10° NNE
Cosmos 2263 Rocket 4.5 10:14:10 10° N 10:19:05 30° ENE 10:24:00 10° ESE
Cosmos 2056 Rocket 4.0 10:14:33 10° SW 10:19:20 40° WNW 10:24:08 10° N
Cosmos 1892 Rocket 3.7 10:15:33 10° S 10:19:54 80° E 10:24:15 10° N
Cosmos 1464 Rocket 4.0 10:14:44 10° N 10:20:54 89° E 10:27:06 10° S
Cosmos 1513 Rocket 4.5 10:16:04 10° N 10:22:19 82° W 10:28:25 10° S
Cosmos 1340 3.6 10:21:11 10° SW 10:24:28 28° WNW 10:27:45 10° NNW
CZ-3B R/B 3.6 10:20:51 10° SW 10:24:30 31° SSE 10:32:04 10° ESE
PSLV R/B 3.8 10:22:57 10° N 10:26:59 48° WNW 10:31:00 10° SSW
Cosmos 2058 Rocket 4.4 10:25:46 10° N 10:30:06 47° E 10:34:27 10° SSE
Cosmos 1954 Rocket 4.3 10:26:51 10° NNW 10:32:08 79° ENE 10:37:25 10° SSE
Cosmos 1697 Rocket 4.1 10:29:57 10° WSW 10:34:06 21° WNW 10:38:18 10° N
